Location: Bothwell
(42.3833°S, 147.0000°E)
Time: 14:14:20
(UTC+11:00)

OBJECT D - Pass Details

Date: 21 November 2025
Orbit: 437 x 585 km, 63.5° (Epoch: 12 December)

Event Time Altitude Azimuth Distance (km) Brightness Sun altitude
Exits shadow 03:19:26 18° 34° (NE) 1,404 ? -19.7°
Maximum altitude 03:20:59 23° 65° (ENE) 1,239 ? -19.5°
Drops below altitude 10° 03:24:14 10° 117° (ESE) 1,837 ? -19.2°
Sets 03:26:45 0° 131° (SE) 2,710 ? -18.9°
